Change the Weather History Date:

Thursday, February 27, 2014

  Actual Average Record
Temperature  
Mean Temperature -14 °F -  
Max Temperature -4 °F - - ()
Min Temperature -23 °F - - ()
Degree Days  
Heating Degree Days 78    
Moisture  
Dew Point -26 °F    
Average Humidity 52    
Maximum Humidity 69    
Minimum Humidity 34    
Precipitation  
Precipitation 0.00 in - - ()
Sea Level Pressure  
Sea Level Pressure 30.09 in    
Wind  
Wind Speed 8 mph (WNW)    
Max Wind Speed 16 mph    
Max Gust Speed 23 mph    
Visibility 10 miles    
Events      
T = Trace of Precipitation, MM = Missing Value Source: NWS Daily Summary

Daily Weather History Graph

Daily Weather History Graph

Search for Another Location

Airport or City:

Trip Planner

Search our weather history database for the weather conditions in past years. The results will help you decide how hot, cold, wet, or windy it might be!

Date:

Astronomy

Feb. 27, 2014 Rise Set
Actual Time 6:51 AM CST 5:53 PM CST
Civil Twilight 6:21 AM CST 6:23 PM CST
Nautical Twilight 5:47 AM CST 6:57 PM CST
Astronomical Twilight 5:12 AM CST 7:32 PM CST
Moon 5:28 AM CST (2/27) 4:16 PM CST (2/27)
Length of Visible Light 12h 01m
Length of Day
11h 01m
Waning Crescent, 4% of the Moon is Illuminated
Feb 27
Waning Crescent
Mar 1
New
Mar 8
First Quarter
Mar 16
Full
Mar 23
Last Quarter

Hourly Weather History & Observations

Time (CST) Temp. Windchill Dew Point Humidity Pressure Visibility Wind Dir Wind Speed Gust Speed Precip Events Conditions
12:15 AM -5.8 °F -24.4 °F -20.4 °F 49% 29.89 in 10.0 mi NNW 11.5 mph 19.6 mph N/A   Clear
12:35 AM -6.7 °F -27.9 °F -20.6 °F 51% 29.90 in 10.0 mi NNW 15.0 mph 21.9 mph N/A   Clear
12:55 AM -7.8 °F -30.0 °F -21.5 °F 51% 29.92 in 10.0 mi NNW 16.1 mph 23.0 mph N/A   Clear
1:15 AM -8.5 °F -25.7 °F -22.5 °F 50% 29.93 in 10.0 mi NNW 9.2 mph 20.7 mph N/A   Clear
1:35 AM -9.4 °F -25.6 °F -22.9 °F 52% 29.95 in 10.0 mi NW 8.1 mph - N/A   Clear
1:55 AM -10.3 °F -30.0 °F -22.9 °F 54% 29.96 in 10.0 mi NNW 11.5 mph - N/A   Clear
2:15 AM -10.8 °F -28.6 °F -23.3 °F 54% 29.97 in 10.0 mi NW 9.2 mph - N/A   Clear
2:35 AM -11.2 °F -32.1 °F -23.8 °F 54% 29.98 in 10.0 mi NNW 12.7 mph - N/A   Clear
2:55 AM -12.1 °F -33.2 °F -24.3 °F 55% 29.99 in 10.0 mi NNW 12.7 mph 17.3 mph N/A   Clear
3:15 AM -13.2 °F -35.4 °F -24.7 °F 56% 30.00 in 10.0 mi NW 13.8 mph - N/A   Clear
3:35 AM -13.4 °F -33.8 °F -24.9 °F 56% 30.01 in 10.0 mi NW 11.5 mph - N/A   Clear
3:55 AM -13.9 °F -35.5 °F -25.4 °F 56% 30.03 in 10.0 mi NW 12.7 mph 16.1 mph N/A   Clear
4:15 AM -14.6 °F -32.0 °F -25.8 °F 57% 30.04 in 10.0 mi NNW 8.1 mph - N/A   Clear
4:35 AM -14.8 °F -30.8 °F -26.1 °F 57% 30.04 in 10.0 mi NNW 6.9 mph 10.4 mph N/A   Clear
4:55 AM -15.7 °F -34.6 °F -26.5 °F 58% 30.05 in 10.0 mi NW 9.2 mph - N/A   Clear
5:15 AM -16.1 °F -33.7 °F -26.7 °F 59% 30.06 in 10.0 mi NNW 8.1 mph - N/A   Clear
5:35 AM -16.6 °F -35.7 °F -27.2 °F 59% 30.07 in 10.0 mi NNW 9.2 mph - N/A   Clear
5:55 AM -16.8 °F -34.6 °F -27.4 °F 59% 30.08 in 10.0 mi NW 8.1 mph - N/A   Clear
6:15 AM -18.6 °F -33.6 °F -27.9 °F 62% 30.09 in 10.0 mi NW 5.8 mph - N/A   Clear
6:35 AM -19.3 °F -32.4 °F -28.5 °F 63% 30.10 in 10.0 mi WNW 4.6 mph - N/A   Clear
6:55 AM -19.8 °F -30.5 °F -28.8 °F 63% 30.11 in 10.0 mi WNW 3.5 mph - N/A   Clear
7:15 AM -19.1 °F -29.7 °F -28.1 °F 63% 30.11 in 10.0 mi NW 3.5 mph - N/A   Clear
7:35 AM -19.1 °F -32.2 °F -28.3 °F 63% 30.13 in 10.0 mi WNW 4.6 mph - N/A   Clear
7:55 AM -18.2 °F -33.2 °F -28.1 °F 61% 30.14 in 10.0 mi NW 5.8 mph - N/A   Clear
8:15 AM -17.1 °F -33.6 °F -28.1 °F 57% 30.15 in 10.0 mi NNW 6.9 mph - N/A   Clear
8:35 AM -16.1 °F -33.7 °F -27.6 °F 56% 30.15 in 10.0 mi NNW 8.1 mph - N/A   Clear
8:55 AM -15.0 °F -29.3 °F -27.4 °F 54% 30.15 in 10.0 mi North 5.8 mph - N/A   Clear
9:15 AM -14.8 °F -24.8 °F -27.4 °F 53% 30.16 in 10.0 mi NW 3.5 mph - N/A   Clear
9:35 AM -14.1 °F -26.3 °F -26.9 °F 53% 30.16 in 10.0 mi WNW 4.6 mph - N/A   Clear
9:55 AM -13.0 °F -27.0 °F -26.9 °F 50% 30.16 in 10.0 mi NW 5.8 mph - N/A   Clear
10:15 AM -12.1 °F -24.0 °F -26.7 °F 48% 30.16 in 10.0 mi WNW 4.6 mph - N/A   Clear
10:35 AM -11.0 °F -20.4 °F -26.9 °F 46% 30.16 in 10.0 mi WSW 3.5 mph - N/A   Clear
10:55 AM -10.3 °F -21.9 °F -26.1 °F 46% 30.16 in 10.0 mi West 4.6 mph - N/A   Clear
11:15 AM -9.4 °F -20.9 °F -25.8 °F 45% 30.16 in 10.0 mi WNW 4.6 mph - N/A   Clear
11:35 AM -8.7 °F -20.0 °F -26.5 °F 42% 30.15 in 10.0 mi West 4.6 mph - N/A   Clear
11:55 AM -7.6 °F -20.6 °F -26.9 °F 39% 30.15 in 10.0 mi WNW 5.8 mph - N/A   Clear
12:10 PM -7.1 °F -18.1 °F -26.5 °F 38% 30.15 in 10.0 mi WNW 4.6 mph - N/A   Clear
12:30 PM -6.2 °F -22.8 °F -26.1 °F 38% 30.15 in 10.0 mi West 9.2 mph - N/A   Clear
12:55 PM -6.0 °F -21.5 °F -24.9 °F 40% 30.15 in 10.0 mi West 8.1 mph - N/A   Clear
1:10 PM -5.4 °F -23.0 °F -25.1 °F 38% 30.15 in 10.0 mi WSW 10.4 mph - N/A   Clear
1:30 PM -5.6 °F -16.5 °F -26.0 °F 37% 30.14 in 10.0 mi West 4.6 mph - N/A   Clear
1:50 PM -5.3 °F -16.0 °F -27.0 °F 34% 30.14 in 10.0 mi NW 4.6 mph - N/A   Clear
2:15 PM -4.4 °F -12.8 °F -24.3 °F 38% 30.13 in 10.0 mi West 3.5 mph - N/A   Clear
2:35 PM -4.0 °F -21.2 °F -22.5 °F 41% 30.13 in 10.0 mi WSW 10.4 mph - N/A   Clear
2:55 PM -4.0 °F -19.0 °F -23.6 °F 39% 30.12 in 10.0 mi West 8.1 mph - N/A   Clear
3:15 PM -4.0 °F -19.0 °F -24.7 °F 37% 30.12 in 10.0 mi West 8.1 mph - N/A   Clear
3:35 PM -4.0 °F -14.6 °F -24.9 °F 36% 30.12 in 10.0 mi West 4.6 mph - N/A   Clear
3:55 PM -4.0 °F - -25.1 °F 36% 30.11 in 10.0 mi Calm Calm - N/A   Clear
4:15 PM -4.2 °F -19.3 °F -23.8 °F 39% 30.11 in 10.0 mi WSW 8.1 mph - N/A   Clear
4:35 PM -4.4 °F -16.7 °F -24.3 °F 38% 30.11 in 10.0 mi WSW 5.8 mph - N/A   Clear
4:55 PM -4.9 °F -17.4 °F -25.4 °F 37% 30.10 in 10.0 mi SW 5.8 mph - N/A   Clear
5:15 PM -5.8 °F -16.7 °F -26.3 °F 37% 30.10 in 10.0 mi WSW 4.6 mph - N/A   Clear
5:35 PM -5.8 °F -14.5 °F -26.5 °F 36% 30.10 in 10.0 mi West 3.5 mph - N/A   Clear
5:55 PM -6.9 °F - -26.5 °F 38% 30.10 in 10.0 mi Calm Calm - N/A   Clear
6:15 PM -8.3 °F - -25.4 °F 43% 30.10 in 10.0 mi Calm Calm - N/A   Clear
6:35 PM -11.9 °F - -25.1 °F 52% 30.10 in 10.0 mi Calm Calm - N/A   Clear
6:55 PM -11.9 °F - -25.6 °F 51% 30.11 in 10.0 mi Calm Calm - N/A   Clear
7:15 PM -14.1 °F - -24.9 °F 58% 30.11 in 10.0 mi Calm Calm - N/A   Clear
7:35 PM -14.8 °F - -24.9 °F 61% 30.11 in 10.0 mi Calm Calm - N/A   Clear
7:55 PM -17.7 °F -28.0 °F -26.5 °F 64% 30.11 in 10.0 mi SSE 3.5 mph - N/A   Clear
8:15 PM -17.1 °F - -27.2 °F 60% 30.10 in 10.0 mi Calm Calm - N/A   Clear
8:35 PM -18.4 °F - -27.0 °F 65% 30.09 in 10.0 mi Calm Calm - N/A   Clear
8:55 PM -18.9 °F - -27.4 °F 65% 30.10 in 10.0 mi Calm Calm - N/A   Clear
9:15 PM -21.3 °F - -29.2 °F 67% 30.09 in 10.0 mi Calm Calm - N/A   Clear
9:35 PM -21.3 °F - -29.2 °F 67% 30.09 in 10.0 mi Calm Calm - N/A   Clear
9:55 PM -22.2 °F - -30.5 °F 65% 30.10 in 10.0 mi Calm Calm - N/A   Clear
10:15 PM -22.0 °F - -29.7 °F 67% 30.10 in 10.0 mi Calm Calm - N/A   Clear
10:35 PM -23.1 °F - -30.5 °F 68% 30.09 in 10.0 mi Calm Calm - N/A   Clear
10:55 PM -23.3 °F - -30.6 °F 68% 30.09 in 10.0 mi Calm Calm - N/A   Clear
11:15 PM -23.8 °F - -31.0 °F 69% 30.08 in 10.0 mi Calm Calm - N/A   Clear
11:35 PM -23.3 °F - -31.2 °F 67% 30.07 in 10.0 mi Calm Calm - N/A   Clear
11:55 PM -22.5 °F -33.6 °F -30.3 °F 67% 30.06 in 7.0 mi ESE 3.5 mph - N/A   Clear